Temperature
16 16 16 16 16 16 16 16 16 16 16 16 16 16 16 16 16 16 16 16 16 17 17 17 17 17 17 16 16 16 16 16 16 16 16 16 16 16 15 15 14 15 15
16 16 16 16 16 16 16 16 16 16 16 16 16 16 16 16 16 16 16 16 16 17 17 17 17 17 17 17 17 17 17 17 16 16 16 16 16 16 15 15 15 15 15
16 15 16 16 16 16 16 16 16 16 16 16 16 16 16 16 16 16 16 16 17 17 17 17 17 17 17 17 17 17 17 17 16 16 15 15 16 16 15 15 15 15 15
15 15 15 16 16 16 16 16 16 16 16 16 16 16 16 16 16 16 16 17 17 17 17 17 17 17 17 17 17 17 17 17 16 16 14 14 15 16 15 15 15 15 15
15 15 15 16 16 16 16 16 16 16 16 16 16 16 16 16 16 16 16 17 17 17 17 17 17 17 17 17 17 17 17 16 16 15 15 14 15 15 15 15 15 15 15
15 15 15 16 16 16 16 16 16 16 15 16 16 16 16 16 16 16 17 17 17 17 17 17 17 17 17 17 17 17 16 16 15 15 14 14 15 15 15 15 15 15 15
15 15 15 15 15 15 16 16 16 16 15 15 16 16 16 16 16 16 17 17 17 17 17 17 17 17 17 17 16 16 16 16 15 15 15 14 15 15 15 15 15 15 15
15 15 15 15 15 15 15 15 16 15 15 15 16 16 16 16 16 17 17 17 17 17 17 17 17 17 17 17 16 16 16 16 15 15 15 15 15 15 15 15 15 15 15
15 15 15 15 15 15 15 15 15 15 15 15 15 16 16 16 16 17 17 17 17 17 17 17 17 17 16 16 16 16 16 16 14 15 15 14 15 15 15 15 14 14 14
15 15 15 14 14 15 15 15 15 15 15 15 15 16 16 16 16 16 17 17 17 17 17 17 17 17 16 16 16 16 16 15 14 15 14 14 15 15 14 14 14 14 14
15 15 14 14 14 14 14 14 15 15 15 15 15 15 15 16 16 16 16 17 17 17 17 17 17 16 16 16 16 16 15 15 14 14 14 14 14 14 14 14 14 14 13
14 14 14 14 14 14 14 14 14 14 15 15 15 15 15 15 15 16 16 16 16 16 16 16 16 16 16 15 15 15 15 14 14 14 14 14 14 14 14 14 13 13 13
14 14 14 14 14 14 14 14 14 14 14 14 15 15 15 15 16 16 16 16 16 16 16 16 16 16 15 15 15 14 14 14 14 14 14 14 14 14 13 13 13 13 13
14 14 14 14 14 14 14 14 14 14 15 15 15 15 15 15 15 16 16 16 16 16 16 15 15 15 15 15 14 14 14 14 14 14 13 14 14 13 13 13 13 13 13
14 14 14 14 14 14 14 15 15 15 15 15 15 15 15 15 15 15 15 16 15 15 15 15 15 14 14 14 14 14 14 13 13 13 13 14 14 13 13 13 13 13 12
13 13 14 14 14 14 14 15 14 15 15 15 15 15 15 15 15 15 15 15 15 15 15 15 14 14 14 14 14 13 13 13 13 13 13 13 14 13 13 13 13 13 13
13 13 13 14 14 14 14 14 14 15 15 15 15 15 15 15 15 15 15 15 15 15 15 14 14 14 14 14 13 13 13 13 13 13 13 13 13 13 13 13 13 13 12
13 13 13 13 14 14 14 14 14 14 14 15 15 15 15 15 15 15 15 15 14 14 14 14 14 13 13 13 13 13 13 13 13 13 13 13 13 13 13 13 13 12 12
13 13 13 13 13 14 14 14 14 14 14 14 14 14 15 15 14 14 14 14 14 14 14 14 13 13 13 13 13 13 13 13 13 14 13 13 13 13 13 12 12 12 12
12 13 13 13 13 13 13 13 14 14 14 14 14 14 14 14 14 14 14 14 14 13 13 13 13 13 13 13 13 13 13 13 14 13 13 13 13 13 12 12 12 12 12
12 12 13 13 13 13 13 13 13 13 14 14 14 14 14 14 14 14 14 14 13 13 13 13 13 13 13 13 13 13 13 13 13 13 13 13 12 12 12 12 11 11 11
12 12 12 13 13 13 13 13 13 14 14 14 14 14 13 14 13 13 13 13 13 13 13 13 13 13 13 13 12 12 12 12 12 13 12 12 12 11 11 11 11 11 10
12 12 12 12 12 12 13 13 13 13 13 13 13 13 13 13 13 13 13 13 13 13 13 13 13 13 12 13 12 12 12 13 12 11 12 11 11 11 10 10 10 10 10
12 12 12 12 12 12 13 13 13 13 13 13 13 13 13 13 13 13 13 13 13 13 13 13 12 12 12 12 12 12 12 12 11 11 10 10 10 10 10 9 9 9 9
12 12 12 12 12 12 12 13 13 13 13 13 13 13 13 13 13 13 13 13 13 13 13 12 12 12 12 12 12 12 12 12 11 10 10 10 9 9 9 9 9 8 8
13 12 12 13 13 13 12 12 12 12 12 12 12 13 13 13 13 13 13 13 12 12 12 12 12 12 12 12 12 12 12 11 11 10 9 9 8 8 8 8 8 8 7
Wind_Speed
15 20 24 22 20 19 17 16 14 13 14 16 17 18 18 18 19 19 20 20 20 20 19 19 18 17 17 17 18 17 17 17 16 16 16 16 15 15 14 12 10 14 14
19 23 25 23 21 19 17 16 14 13 14 17 18 19 19 19 20 20 20 20 20 20 19 19 18 17 17 17 16 16 16 16 15 13 12 15 15 14 14 14 14 13 13
20 23 24 23 21 19 17 16 14 12 14 17 18 20 20 20 21 20 20 21 20 20 19 18 17 16 16 15 15 15 15 14 12 8 6 12 14 14 13 13 13 13 13
20 22 23 23 21 20 18 16 14 12 14 17 19 20 21 21 21 21 21 21 20 19 19 17 16 15 15 14 14 14 13 12 9 3 9 11 12 13 13 13 13 13 12
19 20 22 23 22 20 18 16 14 13 14 17 19 21 21 21 21 21 20 20 20 19 18 16 15 14 14 13 13 13 12 10 6 7 11 11 11 12 12 11 11 11 11
18 19 22 22 21 20 18 17 15 14 14 16 19 20 21 21 21 21 20 20 19 18 17 16 15 14 13 13 12 12 11 7 5 9 9 9 10 10 10 10 10 10 10
18 18 22 22 21 20 19 17 16 15 15 16 19 20 20 20 20 20 19 19 18 17 16 15 14 13 13 12 12 11 9 4 7 8 8 8 9 8 8 8 9 9 9
16 17 20 21 20 20 19 17 16 15 15 16 19 19 19 19 19 19 19 18 17 16 15 14 13 13 12 11 10 9 7 3 6 7 6 7 7 6 7 7 7 7 7
14 15 17 20 20 19 19 18 17 16 15 16 17 18 18 18 18 18 17 17 16 15 14 13 13 12 11 10 9 8 6 2 4 5 4 5 4 3 4 4 4 4 5
11 13 15 18 19 19 19 18 17 17 16 16 16 17 18 17 16 16 16 15 15 14 13 12 11 11 10 9 8 7 5 3 3 3 3 4 2 1 1 1 1 1 2
11 12 14 15 16 17 18 18 18 17 16 17 16 18 17 15 15 14 13 13 13 12 12 11 10 10 9 8 7 6 5 2 2 1 1 2 1 1 2 2 2 2 1
13 12 13 15 15 16 16 17 16 15 16 14 15 16 13 12 11 11 13 12 11 11 10 9 9 9 7 6 6 5 3 2 1 1 1 0 2 3 3 4 4 4 4
14 13 12 14 14 14 13 14 12 12 13 13 15 14 12 11 10 10 10 11 10 10 9 9 8 6 5 4 4 4 2 2 2 1 1 1 4 5 5 6 6 6 6
14 14 13 13 13 13 13 12 12 11 11 11 13 14 12 9 8 9 8 8 8 7 7 7 6 6 5 5 4 3 3 3 2 2 1 2 5 6 7 7 7 7 8
14 14 13 13 14 13 12 10 10 11 11 12 12 13 12 9 8 8 7 7 8 7 7 6 6 6 5 4 4 3 3 3 4 3 3 3 6 7 8 9 9 8 8
16 15 13 13 14 13 12 11 10 11 11 12 12 13 13 10 9 8 7 7 7 7 7 6 6 5 4 4 4 4 4 4 4 5 5 5 5 7 8 9 9 9 9
13 13 13 13 13 14 13 12 10 11 12 10 11 13 13 12 11 9 7 7 7 7 7 6 6 5 4 4 4 4 4 4 5 6 5 6 5 5 5 7 8 8 9
9 11 11 10 12 13 11 11 8 10 11 10 11 12 14 13 12 9 7 7 8 7 6 5 5 5 5 4 4 3 4 4 6 5 5 5 5 5 3 3 4 5 6
9 11 11 10 10 11 11 9 9 8 9 10 11 11 13 13 13 10 8 7 9 7 6 5 6 5 5 4 4 3 4 4 4 4 4 4 3 3 4 1 2 3 3
8 9 11 11 10 10 9 8 7 7 8 8 9 10 12 12 13 11 8 9 9 7 7 7 7 5 4 3 3 4 4 3 3 2 2 2 1 2 2 3 2 1 2
7 9 11 12 11 10 9 9 8 9 8 7 7 10 12 12 13 11 8 8 8 8 8 8 7 6 5 3 3 4 3 2 2 1 0 1 1 2 2 3 3 2 2
8 9 10 11 11 12 10 8 7 6 6 7 6 8 11 12 12 11 10 9 8 8 8 8 7 6 4 4 4 3 3 4 3 1 0 1 1 2 2 3 3 3 2
8 9 9 10 10 11 10 7 5 4 4 5 7 7 9 11 12 11 11 9 9 8 8 9 8 8 6 5 4 4 3 3 2 3 2 1 0 1 1 2 3 3 3
7 7 9 10 10 10 10 9 10 8 7 7 6 6 6 8 10 10 10 10 9 8 8 8 7 6 6 5 4 5 5 3 3 3 3 2 1 1 1 1 2 2 2
5 6 8 9 9 9 9 10 10 9 7 5 5 7 7 6 7 8 8 7 7 7 7 7 7 7 5 5 5 4 4 4 5 5 5 3 3 2 1 1 1 1 2
3 4 5 7 8 9 9 10 11 11 9 8 8 8 6 5 5 7 7 6 6 6 7 7 6 7 6 6 5 4 4 4 4 5 6 5 5 3 2 1 1 0 1
Wind_Direction
167 163 157 156 154 152 150 149 150 153 158 158 155 153 148 145 141 135 130 128 125 123 120 117 113 109 104 98 96 94 91 88 85 82 80 77 76 76 70 62 71 74 69
163 161 156 156 155 153 152 149 150 154 159 158 156 153 149 146 141 136 132 129 127 125 122 118 114 110 106 102 99 97 94 91 88 87 92 88 77 75 72 63 60 70 70
160 159 158 157 155 154 151 149 150 155 159 158 156 153 149 144 140 136 134 131 129 126 123 119 115 112 109 106 103 100 98 95 93 95 107 92 84 77 75 70 68 68 69
160 160 161 156 156 154 151 150 150 152 156 155 153 151 148 143 140 137 135 133 130 126 123 119 116 114 113 111 108 104 101 99 97 107 89 85 84 76 73 70 67 66 64
160 162 156 156 156 155 153 152 150 148 150 150 148 148 146 143 140 137 135 133 130 126 123 121 118 116 116 116 114 109 105 102 105 91 85 83 81 76 73 70 67 65 63
161 161 155 157 157 156 154 153 152 148 148 148 146 145 143 141 139 136 134 133 131 129 127 123 119 117 118 117 116 113 110 115 123 89 87 84 83 80 76 73 69 65 63
162 161 158 158 158 158 156 155 153 148 148 148 145 143 141 138 137 136 135 135 134 133 130 126 122 120 119 119 117 116 114 111 94 91 87 84 80 80 78 74 69 65 63
163 162 160 160 159 159 158 156 154 151 149 146 144 142 140 138 138 138 138 138 139 136 132 129 126 123 120 120 120 121 124 132 107 96 91 88 78 78 79 74 67 63 60
163 165 163 165 164 161 159 156 155 152 150 147 143 139 137 138 139 141 141 142 141 138 134 131 128 126 124 122 123 125 130 147 111 98 94 89 79 71 82 81 72 64 59
165 172 169 168 169 168 164 159 155 151 148 146 139 135 134 136 140 142 145 142 141 139 135 132 130 128 127 125 126 131 144 186 111 115 105 92 73 41 77 106 86 67 61
178 179 176 172 171 171 167 161 157 151 146 143 139 135 142 150 149 151 143 139 140 139 137 135 131 130 132 130 131 144 176 174 130 116 106 82 305 281 270 252 245 255 248
185 184 185 178 173 171 167 165 165 161 157 159 154 154 158 155 153 148 135 137 137 137 138 135 134 144 164 156 153 178 185 180 179 166 132 125 280 277 272 263 252 247 246
183 185 191 185 176 173 170 168 166 165 164 164 159 161 157 153 152 154 154 152 153 157 158 150 166 171 177 170 180 191 190 213 226 226 195 238 280 280 278 274 267 255 248
183 190 191 189 181 178 173 171 169 168 168 166 165 164 162 161 164 163 166 165 168 171 171 179 185 177 182 185 196 203 205 227 248 264 260 258 279 282 282 279 276 268 258
190 193 190 186 183 180 176 172 174 172 171 170 169 172 171 169 170 170 170 173 179 176 179 184 189 184 189 193 205 225 237 246 259 265 261 242 273 281 281 280 277 274 268
195 195 187 188 185 179 179 177 177 174 172 172 175 179 180 178 176 176 176 180 182 184 185 189 191 192 198 207 219 229 245 259 269 277 284 269 257 272 279 278 276 276 276
197 197 190 190 185 182 184 183 180 178 176 178 180 183 185 185 183 182 183 184 185 185 187 193 191 202 209 215 226 237 256 270 276 278 283 289 286 270 271 277 278 279 278
200 198 192 192 187 183 184 184 182 183 181 183 184 186 190 191 190 188 188 190 187 186 191 194 199 204 210 221 234 242 257 268 276 285 285 286 293 298 288 287 295 294 289
206 205 201 197 193 187 185 187 183 183 187 185 185 188 192 193 192 193 195 191 187 191 197 197 206 210 215 224 241 258 267 272 280 281 283 293 300 302 304 323 318 325 310
207 211 206 204 201 193 184 183 182 186 190 189 190 194 194 193 194 196 196 196 191 193 198 201 204 210 222 227 240 257 267 272 270 280 293 306 328 333 325 324 318 29 29
204 211 208 205 201 195 188 186 189 193 191 191 194 200 200 197 195 197 195 196 196 201 203 203 203 205 209 217 238 249 240 229 224 202 297 329 26 23 21 19 14 2 48
208 215 209 209 209 201 198 193 194 190 192 195 196 202 203 202 199 200 200 197 196 200 201 200 200 205 199 204 228 245 242 208 185 185 117 55 35 58 53 40 35 28 21
204 212 210 212 214 208 203 193 180 175 182 192 196 201 205 206 204 201 202 198 195 196 198 200 203 207 204 200 219 232 245 247 223 191 176 174 87 42 42 36 27 23 23
207 211 214 210 209 206 201 200 198 200 207 205 201 197 198 206 205 202 199 200 196 196 197 196 204 211 207 199 201 228 249 265 251 240 200 193 190 309 344 10 5 17 16
191 199 206 205 206 204 202 203 207 211 211 201 193 192 193 197 199 193 191 191 195 192 191 190 193 196 203 208 201 200 216 229 240 250 253 235 231 234 283 322 325 357 20
169 183 193 195 199 199 198 202 206 208 200 194 193 194 195 194 192 187 181 180 183 184 182 186 186 188 195 201 201 203 209 215 218 229 250 261 264 248 236 252 261 355 42
Height
1504 1508 1510 1514 1517 1519 1521 1522 1523 1524 1526 1528 1530 1532 1535 1537 1538 1540 1541 1543 1544 1545 1545 1546 1546 1547 1547 1547 1548 1548 1548 1548 1549 1549 1549 1548 1548 1548 1548 1548 1548 1547 1546
1503 1507 1510 1513 1516 1519 1520 1522 1523 1524 1526 1528 1530 1532 1535 1537 1539 1540 1542 1543 1545 1546 1546 1547 1548 1548 1549 1549 1550 1550 1550 1551 1551 1551 1551 1551 1551 1550 1550 1550 1549 1549 1548
1502 1506 1509 1513 1516 1518 1520 1522 1523 1525 1526 1528 1530 1533 1535 1537 1539 1541 1543 1544 1546 1547 1548 1549 1549 1550 1551 1551 1552 1552 1553 1553 1553 1553 1553 1554 1553 1552 1552 1552 1551 1551 1550
1503 1506 1509 1512 1516 1518 1520 1522 1524 1525 1527 1528 1530 1533 1535 1538 1540 1542 1544 1545 1547 1548 1549 1550 1551 1552 1553 1553 1554 1554 1555 1555 1555 1555 1556 1556 1555 1554 1554 1553 1553 1552 1552
1504 1507 1509 1512 1515 1518 1520 1522 1524 1525 1527 1529 1531 1533 1536 1538 1541 1543 1545 1546 1548 1549 1550 1552 1553 1554 1555 1555 1556 1556 1556 1556 1557 1557 1557 1557 1556 1556 1555 1555 1554 1554 1553
1504 1507 1509 1512 1515 1518 1520 1522 1524 1526 1528 1530 1532 1534 1536 1539 1541 1544 1546 1547 1549 1550 1552 1553 1554 1555 1556 1557 1557 1558 1558 1558 1558 1559 1559 1559 1558 1557 1557 1556 1555 1555 1554
1504 1507 1509 1512 1515 1518 1520 1522 1524 1526 1528 1530 1532 1535 1537 1539 1542 1544 1546 1548 1550 1552 1553 1555 1556 1557 1558 1558 1559 1559 1559 1559 1560 1560 1560 1560 1559 1558 1558 1557 1556 1556 1555
1504 1507 1509 1512 1515 1518 1520 1522 1524 1526 1528 1531 1533 1535 1538 1540 1542 1545 1547 1549 1551 1553 1554 1555 1557 1558 1559 1559 1560 1560 1560 1560 1561 1561 1561 1560 1560 1559 1558 1558 1557 1556 1555
1503 1506 1509 1512 1515 1517 1520 1522 1524 1526 1528 1531 1533 1535 1538 1541 1543 1545 1548 1550 1552 1553 1555 1556 1557 1559 1559 1560 1561 1561 1561 1561 1562 1562 1561 1561 1560 1559 1559 1558 1557 1557 1556
1501 1505 1508 1511 1514 1517 1519 1522 1524 1527 1528 1531 1533 1536 1538 1541 1543 1546 1548 1550 1552 1554 1555 1557 1558 1559 1560 1561 1561 1562 1562 1562 1562 1562 1562 1561 1560 1560 1559 1558 1558 1557 1556
1499 1503 1507 1510 1513 1516 1519 1521 1524 1526 1528 1531 1533 1535 1538 1541 1543 1546 1548 1550 1552 1554 1555 1557 1558 1559 1560 1561 1561 1562 1562 1562 1562 1562 1561 1561 1560 1559 1559 1558 1557 1557 1556
1496 1501 1505 1509 1511 1514 1517 1520 1523 1525 1528 1530 1533 1535 1538 1540 1543 1545 1547 1550 1552 1554 1555 1557 1558 1559 1560 1561 1561 1561 1562 1562 1562 1562 1561 1560 1560 1559 1558 1558 1557 1556 1555
1493 1497 1502 1507 1509 1512 1515 1518 1521 1524 1527 1530 1532 1534 1537 1539 1542 1545 1547 1549 1551 1553 1555 1556 1557 1559 1559 1560 1561 1561 1561 1561 1562 1561 1560 1559 1559 1558 1557 1557 1556 1555 1555
1491 1495 1499 1503 1507 1510 1513 1517 1520 1522 1525 1528 1531 1534 1536 1539 1541 1544 1546 1548 1550 1552 1554 1555 1557 1558 1558 1559 1560 1561 1561 1561 1561 1560 1559 1558 1557 1557 1556 1555 1555 1554 1553
1488 1492 1497 1499 1504 1508 1511 1514 1518 1521 1524 1527 1530 1533 1535 1538 1540 1543 1545 1547 1549 1551 1553 1554 1556 1557 1558 1558 1559 1559 1560 1560 1559 1559 1558 1556 1556 1555 1554 1553 1553 1552 1552
1485 1490 1494 1497 1501 1505 1509 1512 1516 1519 1522 1525 1528 1531 1534 1537 1539 1542 1544 1546 1548 1550 1551 1553 1554 1555 1556 1557 1558 1558 1558 1558 1557 1557 1556 1555 1553 1552 1552 1551 1550 1550 1549
1483 1487 1490 1494 1498 1502 1506 1510 1514 1517 1520 1523 1526 1529 1532 1535 1537 1540 1542 1544 1546 1548 1550 1551 1552 1553 1554 1555 1556 1556 1556 1556 1555 1554 1553 1552 1551 1550 1549 1548 1547 1547 1546
1481 1484 1488 1492 1496 1500 1504 1507 1511 1515 1518 1521 1524 1527 1530 1533 1535 1538 1540 1542 1544 1546 1548 1549 1550 1552 1553 1553 1554 1554 1554 1553 1553 1552 1551 1549 1548 1547 1546 1545 1545 1544 1544
1479 1482 1486 1489 1493 1497 1501 1505 1509 1512 1516 1519 1522 1525 1528 1530 1533 1535 1538 1540 1542 1544 1545 1547 1548 1550 1551 1551 1551 1551 1551 1551 1550 1549 1548 1547 1546 1545 1544 1543 1543 1542 1542
1476 1480 1483 1487 1490 1494 1498 1502 1506 1509 1513 1516 1518 1522 1525 1528 1530 1533 1535 1537 1539 1541 1543 1544 1546 1547 1548 1549 1549 1549 1548 1548 1547 1546 1545 1544 1543 1543 1542 1541 1541 1540 1540
1473 1476 1480 1483 1487 1491 1494 1498 1502 1505 1509 1512 1515 1519 1522 1525 1527 1530 1532 1534 1536 1538 1540 1541 1543 1544 1545 1546 1546 1546 1546 1544 1544 1543 1543 1542 1541 1541 1540 1539 1539 1538 1538
1469 1473 1476 1480 1483 1487 1491 1495 1498 1502 1505 1508 1511 1515 1518 1521 1524 1526 1528 1530 1532 1534 1536 1538 1540 1541 1542 1543 1543 1544 1544 1544 1541 1540 1540 1539 1539 1538 1537 1537 1536 1536 1535
1467 1470 1473 1477 1480 1483 1487 1490 1494 1498 1501 1505 1508 1511 1514 1517 1520 1522 1524 1526 1528 1530 1532 1534 1536 1538 1538 1539 1540 1541 1542 1541 1540 1538 1537 1537 1536 1536 1535 1534 1533 1533 1532
1465 1468 1471 1473 1477 1480 1482 1485 1489 1493 1496 1500 1504 1507 1510 1513 1515 1517 1520 1522 1524 1526 1528 1530 1532 1534 1535 1535 1536 1536 1537 1537 1537 1537 1535 1534 1533 1533 1532 1531 1530 1529 1529
1463 1466 1468 1471 1474 1477 1479 1483 1487 1490 1493 1496 1500 1503 1505 1508 1510 1512 1515 1517 1519 1521 1523 1526 1528 1529 1531 1531 1532 1532 1532 1532 1533 1533 1533 1532 1530 1529 1528 1527 1526 1525 1525
1461 1464 1466 1468 1471 1474 1477 1480 1483 1486 1489 1492 1494 1497 1500 1502 1505 1506 1509 1512 1514 1516 1519 1522 1524 1525 1526 1527 1527 1528 1528 1529 1528 1528 1528 1528 1527 1525 1524 1523 1522 1521 1521